Weather History for Frederick, OK

Change the Weather History Date:

Saturday, September 29, 2012

  Actual Average (KLTS) Record (KLTS)
Temperature  
Mean Temperature 68 °F -  
Max Temperature 70 °F 80 °F 100 °F (1998)
Min Temperature 66 °F 56 °F 46 °F (1999)
Cooling Degree Days 3    
Growing Degree Days 18 (Base 50)    
Moisture  
Dew Point 65 °F    
Average Humidity 92    
Maximum Humidity 96    
Minimum Humidity 87    
Precipitation  
Precipitation 0.50 in - - ()
Sea Level Pressure  
Sea Level Pressure 29.96 in    
Wind  
Wind Speed 7 mph (North)    
Max Wind Speed 15 mph    
Max Gust Speed -    
Visibility 8 miles    
Events Rain    
Averages and records for this station are not official NWS values.
T = Trace of Precipitation, MM = Missing Value Source: NWS Daily Summary

Daily Weather History Graph

Daily Weather History Graph

Search for Another Location

Airport:

Trip Planner

Search our weather history database for the weather conditions in past years. The results will help you decide how hot, cold, wet, or windy it might be!

Date:

Astronomy

Sep. 29, 2012 Rise Set
Actual Time 7:29 AM CDT 7:22 PM CDT
Civil Twilight 7:04 AM CDT 7:47 PM CDT
Nautical Twilight 6:35 AM CDT 8:16 PM CDT
Astronomical Twilight 6:05 AM CDT 8:45 PM CDT
Moon 6:57 PM CDT (9/29) 7:01 AM CDT (9/29)
Length of Visible Light 12h 42m
Length of Day
11h 52m
Full, 100% of the Moon is Illuminated
Sep 29
Full
Sep 29
Full
Oct 8
Last Quarter
Oct 15
New
Oct 21
First Quarter

Hourly Weather History & Observations

Time (CDT) Temp. Dew Point Humidity Pressure Visibility Wind Dir Wind Speed Gust Speed Precip Events Conditions
12:53 AM 70.0 °F 68.0 °F 93% 30.00 in 7.0 mi South 4.6 mph - 0.00 in Rain Light Rain
1:53 AM 69.1 °F 68.0 °F 96% 29.99 in 5.0 mi SSW 3.5 mph - 0.01 in Rain Light Rain
2:53 AM 69.1 °F 68.0 °F 96% 29.99 in 5.0 mi NNW 3.5 mph - 0.01 in Rain Light Rain
3:53 AM 69.1 °F 66.9 °F 93% 29.97 in 7.0 mi Calm Calm - 0.01 in Rain Light Rain
4:53 AM 69.1 °F 66.0 °F 90% 29.95 in 6.0 mi North 3.5 mph - 0.01 in Rain Light Rain
5:53 AM 68.0 °F 64.9 °F 90% 29.95 in 8.0 mi NNW 4.6 mph - 0.01 in Rain Light Rain
6:53 AM 68.0 °F 64.0 °F 87% 29.96 in 10.0 mi NNW 5.8 mph - 0.01 in Rain Light Rain
7:53 AM 66.9 °F 64.0 °F 90% 29.98 in 8.0 mi North 8.1 mph - 0.03 in Rain Light Rain
8:53 AM 66.9 °F 64.0 °F 90% 29.98 in 8.0 mi NNW 8.1 mph - 0.03 in Rain Light Rain
9:53 AM 66.9 °F 64.9 °F 93% 29.99 in 7.0 mi North 9.2 mph - 0.03 in Rain Light Rain
10:53 AM 68.0 °F 66.0 °F 93% 29.98 in 7.0 mi North 9.2 mph - 0.02 in Rain Light Rain
11:53 AM 69.1 °F 66.0 °F 90% 29.98 in 8.0 mi North 11.5 mph - 0.03 in Rain Light Rain
12:53 PM 68.0 °F 64.9 °F 90% 29.97 in 8.0 mi North 11.5 mph - 0.03 in Rain Light Rain
1:53 PM 69.1 °F 66.9 °F 93% 29.95 in 7.0 mi North 15.0 mph - 0.07 in Rain Light Rain
2:30 PM 69.8 °F 66.2 °F 88% 29.98 in 10.0 mi North 11.5 mph - 0.02 in Rain Light Rain
2:35 PM 69.8 °F 66.2 °F 88% 29.98 in 10.0 mi North 12.7 mph - 0.02 in Rain Light Rain
2:53 PM 70.0 °F 66.9 °F 90% 29.94 in 9.0 mi North 12.7 mph - 0.03 in Rain Light Rain
3:53 PM 68.0 °F 66.0 °F 93% 29.93 in 7.0 mi North 15.0 mph - 0.07 in Rain Light Rain
4:53 PM 66.9 °F 64.9 °F 93% 29.93 in 7.0 mi NNE 12.7 mph - 0.06 in Rain Light Rain
5:11 PM 66.2 °F 64.4 °F 94% 29.96 in 9.0 mi NNE 10.4 mph - 0.01 in Rain Light Rain
5:53 PM 66.9 °F 64.9 °F 93% 29.92 in 10.0 mi North 9.2 mph - 0.02 in Rain Light Rain
6:53 PM 68.0 °F 66.0 °F 93% 29.92 in 10.0 mi North 6.9 mph - 0.00 in   Overcast
7:46 PM 68.0 °F 64.4 °F 88% 29.95 in 10.0 mi North 9.2 mph - N/A   Mostly Cloudy
7:53 PM 68.0 °F 64.9 °F 90% 29.92 in 9.0 mi North 10.4 mph - N/A   Mostly Cloudy
8:26 PM 66.2 °F 64.4 °F 94% 29.95 in 8.0 mi North 9.2 mph - 0.00 in Rain Light Rain
8:53 PM 66.9 °F 64.9 °F 93% 29.93 in 8.0 mi North 10.4 mph - 0.01 in Rain Light Rain
9:29 PM 66.2 °F 64.4 °F 94% 29.97 in 8.0 mi North 9.2 mph - 0.00 in   Mostly Cloudy
9:53 PM 66.9 °F 64.0 °F 90% 29.94 in 8.0 mi NNE 8.1 mph - 0.00 in   Overcast
10:53 PM 66.0 °F 64.0 °F 93% 29.94 in 7.0 mi NE 8.1 mph - 0.00 in Rain Light Rain
11:22 PM 66.2 °F 64.4 °F 94% 29.98 in 7.0 mi NNE 5.8 mph - 0.00 in Rain Light Rain
11:37 PM 66.2 °F 64.4 °F 94% 29.98 in 7.0 mi North 5.8 mph - 0.00 in Rain Light Rain
11:53 PM 66.0 °F 64.9 °F 96% 29.95 in 6.0 mi North 6.9 mph - 0.01 in   Overcast